Vorticity
6 10 15 20 20 22 24 28 25 21 17 15 17 20 22 23 24 22 18 13 12 12 11 9 9 9 10 10 10 10 11 10 13 15 16 15 14 12 10 6 2 -1 -3 -1 -4 -7 -7 4 14 20 25 32 36 29 19 9 11 15 19 22 22 22 20 18 13 8 3 -3 -0
4 0 2 9 14 19 24 29 28 25 20 16 17 21 25 29 30 28 24 18 16 15 13 10 9 9 9 9 9 10 11 12 13 14 15 14 13 13 12 10 8 5 3 1 -7 -10 -7 5 8 8 9 12 18 19 17 13 10 10 13 20 24 23 20 16 5 -4 -11 -11 -3
11 2 -2 -1 5 11 18 25 28 27 24 22 21 23 27 32 35 36 34 32 29 24 19 14 12 11 11 10 10 10 11 12 13 13 13 12 12 13 13 13 12 11 7 -1 -11 -12 -5 7 5 1 -2 -3 1 8 14 16 10 4 3 16 29 29 22 14 3 -8 -12 -7 3
25 12 4 1 2 7 13 21 25 25 23 21 20 19 19 20 21 23 25 28 31 31 29 23 20 19 18 18 17 15 14 11 11 11 12 12 12 13 13 14 15 14 8 -6 -17 -12 -1 9 6 4 2 -2 -4 5 16 23 17 6 2 12 27 30 25 16 8 1 -2 4 10
37 26 12 4 3 4 7 13 18 19 17 14 11 9 8 7 7 8 9 11 15 21 26 28 24 22 22 22 25 25 24 19 15 13 12 12 13 14 14 14 17 14 6 -11 -19 -9 5 9 4 4 6 6 2 6 14 22 18 13 11 16 19 20 19 17 12 8 7 11 12
30 36 29 12 5 2 3 5 9 12 12 8 5 3 3 5 8 11 13 13 12 13 18 26 20 13 8 9 16 23 28 29 24 19 15 14 15 16 17 17 19 15 4 -14 -16 -5 7 6 -2 -3 -1 4 5 8 9 8 8 15 23 27 20 15 13 14 11 7 4 5 6
11 27 38 33 18 8 2 1 3 5 5 5 5 4 4 6 9 12 15 17 16 17 20 27 20 10 2 2 5 9 14 21 23 21 18 18 19 19 20 23 22 14 -1 -20 -12 1 10 8 -4 -9 -9 -3 3 7 4 -8 -6 8 24 30 25 21 19 15 7 -0 -3 -1 3
2 10 22 37 34 26 15 7 3 1 1 3 5 7 8 9 10 11 13 13 14 15 19 24 23 18 14 13 15 15 15 15 16 17 18 19 20 21 23 25 22 9 -8 -22 -8 5 14 13 -0 -8 -9 -2 5 6 -0 -17 -16 -2 15 25 24 25 24 21 11 4 1 4 6
8 5 7 14 27 32 31 25 18 12 7 5 5 7 9 10 10 10 9 9 10 11 12 12 13 14 16 18 20 21 21 19 18 17 17 17 18 19 21 23 18 4 -10 -17 -6 3 9 11 3 -2 -4 -1 6 6 -3 -21 -22 -6 16 33 30 27 27 29 26 20 13 6 3
12 10 9 8 9 15 24 32 32 28 22 14 11 11 12 10 6 2 1 1 1 0 -1 -2 -2 -1 2 6 11 14 17 18 18 18 18 17 16 16 17 17 11 1 -6 -6 2 5 6 7 4 0 -3 -3 2 2 -5 -22 -26 -12 12 37 40 38 35 36 31 23 12 2 0
12 14 18 21 17 12 9 12 23 29 29 22 14 11 12 15 11 7 3 -0 -3 -4 -3 -0 -0 -1 -2 -1 2 6 9 11 13 15 16 16 16 15 12 10 6 1 -1 4 10 12 12 13 10 5 0 -2 0 -1 -7 -19 -27 -20 -2 26 37 38 34 28 18 9 1 -4 3
7 10 16 23 28 26 18 7 9 16 23 26 21 16 14 16 19 20 20 18 13 10 9 12 10 7 6 7 7 7 9 9 9 10 11 13 14 12 10 7 3 2 4 9 13 14 15 19 20 17 11 6 3 -0 -6 -14 -25 -25 -13 10 23 24 19 11 4 -1 -3 -4 10
3 4 7 12 19 25 26 21 14 11 13 20 23 23 21 19 19 19 19 19 17 16 15 13 8 7 8 13 13 13 12 12 11 8 7 7 8 7 4 2 0 -0 0 1 1 1 4 12 21 24 22 16 10 7 2 -6 -18 -21 -13 6 16 17 11 5 5 3 3 4 21
4 3 3 4 7 12 17 23 22 19 15 13 15 18 20 21 21 20 18 16 16 17 17 15 13 13 15 19 20 20 19 17 13 10 6 4 4 2 -1 -4 -5 -6 -8 -11 -12 -11 -7 0 9 17 22 22 20 18 13 6 -4 -7 -4 9 17 19 18 16 17 14 12 15 33
8 6 4 3 3 4 6 10 16 20 21 18 14 13 14 17 19 21 22 23 24 23 23 22 21 20 19 20 21 23 25 24 20 16 12 9 7 5 2 -0 -4 -6 -7 -9 -9 -8 -5 -1 2 6 13 21 24 23 19 14 8 5 5 11 18 24 27 29 26 22 21 27 38
11 10 8 6 5 4 4 5 7 11 15 19 18 16 14 14 14 15 16 18 20 21 22 23 24 23 21 19 18 19 21 23 23 21 20 18 17 16 15 12 9 7 5 4 3 2 1 2 2 4 8 15 18 18 16 12 10 10 12 13 18 26 33 35 30 27 27 32 29
13 13 12 10 8 7 6 5 5 6 8 11 14 16 16 14 13 12 11 10 9 10 12 15 19 20 21 21 20 19 18 19 19 20 20 20 22 22 23 23 23 22 21 19 16 12 9 7 5 4 5 9 11 12 11 11 15 20 21 16 16 25 34 37 32 28 24 20 9
13 13 13 13 12 10 9 7 6 6 6 7 9 11 12 12 12 11 11 11 9 6 5 6 9 13 16 18 18 18 18 18 18 18 17 16 16 17 18 19 21 23 25 27 26 23 20 16 9 5 4 8 11 12 14 17 24 27 25 16 13 17 22 24 20 14 7 -1 -8
12 12 13 13 13 12 12 10 9 7 7 6 6 7 9 10 9 9 10 11 12 9 6 3 2 4 8 11 13 13 13 12 13 14 15 15 14 13 11 10 11 13 17 21 26 29 30 27 14 8 7 12 15 17 19 21 24 24 21 15 10 8 7 6 4 1 -2 -5 -6
9 10 11 12 12 13 13 12 12 10 9 8 7 7 7 8 8 8 7 8 11 12 12 9 3 1 2 4 8 10 11 11 10 9 10 11 13 12 11 8 6 5 6 9 16 23 28 28 17 11 9 11 14 16 17 17 18 19 20 17 12 7 2 0 2 5 8 10 10
8 9 9 10 11 11 12 13 13 12 11 11 10 9 8 7 7 7 7 6 8 11 14 15 11 7 4 3 5 6 8 11 13 14 14 11 13 13 13 11 8 6 5 4 5 9 14 17 13 10 7 7 7 8 9 9 11 14 17 17 13 10 7 6 8 13 17 20 20
8 8 8 8 9 10 11 11 12 13 13 12 12 11 10 9 8 7 7 6 6 9 11 14 15 13 9 6 7 8 7 6 5 8 11 13 14 15 17 18 17 15 13 11 7 4 3 6 7 7 6 4 3 3 3 5 6 8 9 9 8 8 9 11 13 16 19 22 23
8 8 8 8 8 8 9 10 11 12 12 13 13 13 12 12 11 9 8 7 7 7 8 11 14 15 14 11 9 9 10 10 7 5 3 2 6 11 15 20 22 23 23 21 18 14 11 10 11 10 8 6 5 5 5 6 6 6 5 5 5 5 7 9 12 14 17 20 22
8 8 8 8 8 8 8 9 9 10 11 12 13 13 13 13 13 12 11 10 8 8 8 8 10 12 14 14 12 10 9 10 12 12 10 7 5 5 7 12 18 21 22 22 20 19 18 18 16 14 11 9 8 8 9 11 13 14 16 17 17 16 17 17 19 20 21 21 23
8 8 8 8 8 8 8 8 8 9 10 10 11 12 12 13 13 13 13 12 11 10 9 8 8 9 10 12 14 13 12 9 10 11 13 15 13 11 9 9 11 13 15 15 13 12 11 11 11 11 11 11 10 9 9 10 12 13 14 14 13 14 15 19 24 28 31 32 33
7 8 8 8 8 8 8 8 8 8 8 9 9 10 11 12 12 13 13 13 13 12 11 10 9 8 8 9 11 13 14 14 12 10 10 12 14 15 15 14 13 12 11 11 10 8 8 7 7 9 10 11 11 10 8 7 6 4 2 0 -1 -0 1 4 9 16 23 29 34
5 6 7 8 8 9 9 8 8 8 8 8 8 9 9 10 11 11 12 13 13 13 13 12 11 10 9 8 8 9 11 13 13 13 12 11 12 13 14 13 13 13 12 11 10 10 9 8 9 9 9 9 10 9 9 8 6 5 5 4 5 6 8 9 9 10 13 17 22
5 6 6 7 8 8 9 9 9 8 8 8 7 7 8 8 9 10 11 12 12 13 14 14 13 12 11 10 9 8 7 8 10 11 12 11 12 12 13 12 11 10 10 9 10 10 10 10 10 9 9 9 10 11 11 12 11 11 11 12 14 16 16 17 16 15 14 13 16
5 5 6 6 7 7 8 8 9 9 9 8 8 7 7 8 8 8 9 10 11 12 13 14 14 14 14 13 12 10 9 8 8 9 10 11 12 12 13 14 12 10 8 6 7 8 9 10 10 10 10 11 10 11 12 13 13 12 12 11 12 12 13 15 16 16 16 15 15
6 6 6 7 6 7 7 8 8 9 9 8 8 8 8 8 7 7 7 8 10 11 12 12 13 14 15 14 13 13 12 11 8 7 8 9 11 13 14 16 16 15 12 9 8 8 9 10 10 11 11 11 11 11 11 11 11 10 9 8 6 6 8 11 14 15 16 16 15
7 7 7 7 7 7 7 7 8 8 8 8 8 8 8 8 8 8 7 7 8 9 10 11 13 14 15 14 14 14 14 14 12 9 7 4 4 6 10 14 17 19 18 16 12 9 8 9 10 11 12 12 11 11 10 9 9 8 6 4 3 4 7 12 14 15 15 15 14
7 8 8 8 8 8 7 7 8 8 8 8 8 8 8 8 8 8 8 7 7 8 8 10 11 12 13 14 15 15 15 15 15 14 12 7 1 -2 -1 3 9 14 18 20 17 13 8 6 8 10 11 11 11 10 10 9 9 8 6 4 4 7 11 15 15 14 12 10 11
8 8 8 8 8 8 8 8 8 8 8 8 8 8 8 8 8 8 8 8 8 8 8 8 9 11 12 14 15 15 15 16 16 16 15 14 9 3 -1 -3 -1 3 8 14 18 18 15 10 8 8 10 11 11 10 10 9 9 8 7 6 7 11 15 17 14 10 7 6 6
9 9 9 9 9 9 9 9 8 8 8 8 8 8 8 8 7 8 8 8 9 9 8 8 8 9 11 12 14 15 15 16 16 16 17 17 15 12 8 3 -0 -2 -1 3 9 15 17 16 12 9 9 9 10 10 10 10 9 9 8 8 10 13 16 17 13 9 7 6 6
9 9 9 9 9 9 9 9 9 9 9 8 8 8 8 8 8 8 8 8 9 9 9 9 9 9 9 10 12 13 15 15 16 17 17 18 17 16 14 11 7 3 -1 -4 -2 2 7 12 11 10 9 9 10 10 10 10 10 9 9 9 11 13 16 17 14 10 8 9 9
9 9 9 9 10 10 10 9 9 9 9 9 9 8 8 9 9 8 8 8 9 9 9 9 9 9 9 9 11 12 14 15 15 16 17 18 19 19 18 16 13 9 5 -0 -4 -4 -3 1 3 5 6 7 9 10 10 10 10 9 9 10 11 13 14 15 13 11 9 10 11
9 9 9 9 9 9 10 10 9 9 9 9 9 9 9 9 9 9 8 8 9 9 9 9 9 10 9 9 9 11 12 13 14 15 16 17 18 20 20 20 16 13 10 6 3 1 0 2 2 1 0 1 4 7 10 11 11 11 11 12 12 12 12 11 10 9 9 9 12
8 8 8 8 9 9 9 9 9 9 9 9 9 9 9 9 9 9 9 9 9 9 9 9 10 10 10 9 9 10 11 12 13 14 15 15 16 18 19 21 20 17 13 10 7 6 6 9 11 9 5 -0 -1 1 5 10 13 14 14 13 14 12 11 9 8 7 7 8 10
8 8 8 8 8 8 8 9 9 9 9 9 9 9 9 9 9 9 9 9 10 9 9 10 10 10 10 10 10 10 10 11 12 13 14 14 15 15 16 18 20 19 17 14 10 7 6 8 14 18 17 10 2 -1 1 6 13 16 16 14 14 13 12 10 9 8 7 8 8
8 8 8 8 8 8 8 8 9 9 9 9 9 9 9 9 9 9 9 10 10 10 10 10 10 10 10 10 10 10 10 10 11 12 13 14 14 14 15 15 17 18 18 18 16 12 8 6 10 16 21 20 9 2 -1 3 12 17 18 15 12 11 10 10 10 10 10 11 11
8 8 8 8 8 8 8 8 8 9 9 9 9 9 9 9 9 9 9 9 10 10 10 10 10 10 10 10 10 10 10 10 11 11 12 13 14 14 14 14 14 15 16 18 18 17 14 10 9 12 18 23 16 6 -1 -0 9 16 19 16 10 7 6 8 9 11 13 15 16
Height
2935 2933 2932 2931 2930 2930 2929 2929 2928 2928 2929 2929 2929 2930 2930 2931 2931 2932 2933 2933 2933 2933 2934 2934 2935 2937 2938 2940 2941 2943 2945 2947 2949 2951 2954 2956 2958 2960 2962 2965 2967 2969 2972 2974 2977 2979 2981 2982 2983 2984 2985 2987 2989 2990 2993 2994 2996 2997 2999 3000 3001 3002 3004 3005 3007 3008 3010 3013 3015
2937 2936 2934 2933 2933 2932 2931 2930 2930 2929 2929 2930 2930 2931 2931 2932 2933 2934 2934 2935 2935 2935 2935 2936 2937 2938 2939 2940 2942 2944 2946 2948 2950 2952 2954 2957 2959 2961 2963 2965 2967 2969 2972 2975 2978 2979 2981 2981 2982 2984 2985 2986 2989 2990 2992 2994 2995 2996 2997 2998 3000 3002 3003 3004 3006 3008 3009 3011 3013
2939 2938 2937 2935 2935 2934 2934 2933 2932 2932 2931 2931 2931 2932 2933 2933 2934 2935 2936 2937 2938 2938 2938 2938 2939 2939 2940 2941 2943 2945 2946 2948 2950 2953 2955 2957 2959 2961 2963 2965 2967 2970 2973 2975 2978 2979 2980 2980 2982 2983 2985 2986 2988 2989 2991 2992 2994 2995 2997 2997 2999 3001 3003 3004 3005 3007 3008 3010 3011
2940 2939 2939 2938 2937 2937 2937 2936 2935 2934 2934 2933 2933 2934 2934 2935 2936 2937 2938 2939 2940 2941 2941 2942 2942 2942 2943 2944 2945 2946 2947 2949 2951 2953 2955 2957 2959 2961 2963 2965 2967 2970 2973 2975 2977 2978 2979 2980 2981 2982 2984 2985 2987 2988 2990 2991 2993 2995 2996 2996 2998 2999 3001 3003 3004 3006 3007 3009 3010
2942 2941 2940 2940 2939 2938 2938 2938 2937 2937 2937 2936 2936 2936 2937 2938 2938 2939 2939 2940 2941 2942 2944 2944 2944 2945 2945 2946 2947 2948 2949 2950 2952 2953 2955 2957 2959 2961 2963 2965 2967 2970 2973 2975 2976 2977 2977 2979 2980 2981 2982 2984 2986 2987 2989 2991 2993 2994 2994 2995 2996 2998 2999 3001 3003 3004 3006 3007 3009
2945 2943 2942 2941 2941 2940 2940 2939 2939 2939 2939 2939 2939 2939 2939 2939 2940 2941 2941 2942 2943 2944 2945 2945 2946 2947 2947 2948 2949 2949 2951 2952 2953 2954 2956 2958 2959 2961 2963 2965 2968 2970 2973 2975 2975 2976 2977 2978 2979 2980 2981 2983 2984 2986 2988 2990 2991 2992 2993 2993 2994 2996 2998 2999 3000 3002 3004 3006 3007
2948 2946 2944 2943 2942 2942 2942 2942 2941 2941 2941 2941 2941 2941 2941 2941 2942 2942 2943 2943 2944 2945 2946 2947 2947 2948 2948 2949 2950 2951 2952 2953 2954 2956 2957 2959 2960 2962 2964 2965 2968 2970 2972 2974 2975 2976 2976 2978 2979 2979 2980 2982 2983 2985 2986 2988 2989 2990 2990 2991 2992 2994 2996 2997 2999 3001 3002 3004 3005
2950 2949 2947 2945 2944 2944 2944 2943 2943 2943 2943 2943 2943 2943 2943 2943 2943 2944 2944 2944 2945 2946 2947 2948 2948 2949 2949 2949 2950 2952 2953 2954 2955 2957 2958 2959 2960 2962 2964 2966 2968 2970 2972 2974 2974 2975 2976 2977 2978 2979 2980 2981 2983 2984 2985 2986 2987 2988 2989 2989 2990 2992 2993 2995 2997 2999 3000 3002 3003
2952 2951 2949 2948 2946 2946 2945 2945 2944 2944 2944 2944 2944 2945 2945 2945 2945 2945 2946 2946 2947 2947 2948 2949 2949 2950 2951 2951 2952 2953 2954 2955 2956 2957 2958 2959 2961 2963 2964 2966 2968 2970 2972 2974 2974 2975 2976 2977 2978 2979 2980 2981 2982 2983 2984 2984 2985 2986 2987 2988 2989 2990 2992 2994 2995 2997 2998 2999 3000
2954 2952 2951 2950 2949 2948 2947 2946 2946 2945 2945 2945 2945 2945 2946 2947 2947 2947 2948 2948 2949 2949 2949 2950 2951 2952 2953 2954 2954 2955 2955 2956 2957 2958 2959 2960 2961 2963 2964 2966 2968 2970 2972 2974 2974 2975 2976 2977 2978 2979 2979 2980 2981 2982 2983 2984 2984 2985 2986 2987 2988 2989 2991 2993 2994 2994 2995 2996 2997
2956 2954 2953 2952 2950 2950 2949 2948 2948 2947 2947 2946 2946 2946 2946 2947 2948 2948 2949 2949 2949 2950 2950 2951 2952 2952 2953 2954 2956 2957 2957 2958 2959 2959 2960 2961 2962 2964 2965 2967 2969 2970 2972 2974 2975 2976 2976 2977 2978 2978 2979 2980 2981 2982 2983 2983 2983 2984 2985 2986 2987 2989 2990 2991 2991 2992 2992 2993 2994
2959 2957 2955 2954 2952 2951 2950 2949 2949 2949 2949 2948 2948 2948 2947 2947 2948 2949 2949 2949 2950 2950 2951 2951 2951 2952 2952 2953 2954 2956 2957 2959 2960 2961 2962 2963 2964 2965 2966 2967 2969 2970 2972 2974 2974 2975 2976 2977 2977 2978 2979 2980 2981 2982 2982 2982 2982 2983 2984 2985 2986 2987 2988 2988 2989 2989 2990 2991 2992
2961 2959 2958 2956 2955 2953 2952 2951 2950 2950 2950 2950 2949 2949 2949 2949 2949 2949 2949 2949 2950 2951 2951 2951 2952 2952 2953 2953 2954 2954 2955 2957 2959 2960 2962 2963 2964 2965 2966 2967 2969 2970 2971 2973 2974 2975 2975 2976 2977 2978 2979 2980 2981 2981 2981 2981 2982 2982 2983 2984 2985 2986 2986 2986 2987 2988 2988 2989 2990
2963 2962 2960 2959 2957 2956 2954 2953 2952 2951 2951 2951 2951 2951 2950 2950 2950 2949 2949 2950 2950 2950 2951 2951 2952 2952 2953 2954 2954 2955 2955 2956 2958 2959 2961 2962 2964 2965 2966 2966 2968 2969 2970 2971 2973 2974 2974 2975 2976 2977 2978 2979 2980 2980 2981 2981 2982 2982 2983 2983 2983 2984 2984 2985 2986 2986 2986 2987 2989
2964 2963 2962 2961 2959 2958 2957 2955 2954 2953 2952 2952 2952 2952 2952 2952 2951 2951 2950 2950 2950 2950 2951 2951 2951 2952 2953 2954 2954 2955 2956 2957 2958 2959 2960 2961 2963 2964 2964 2965 2967 2968 2969 2970 2971 2973 2974 2974 2975 2976 2977 2978 2979 2979 2980 2981 2981 2982 2982 2982 2982 2983 2983 2984 2984 2985 2985 2986 2988
2965 2964 2963 2962 2961 2960 2959 2957 2956 2955 2954 2953 2953 2953 2953 2953 2953 2953 2952 2952 2952 2952 2952 2952 2952 2952 2953 2953 2954 2955 2956 2957 2958 2959 2960 2961 2962 2963 2964 2965 2966 2967 2968 2969 2970 2972 2973 2974 2975 2976 2976 2977 2977 2978 2979 2979 2980 2981 2981 2981 2982 2982 2983 2983 2984 2984 2985 2985 2986
2966 2965 2964 2963 2962 2961 2960 2959 2958 2957 2956 2955 2954 2954 2954 2954 2954 2954 2954 2954 2954 2954 2954 2954 2953 2954 2954 2954 2954 2954 2955 2957 2958 2959 2960 2961 2962 2963 2964 2965 2966 2967 2968 2969 2969 2970 2972 2973 2974 2975 2975 2975 2976 2976 2977 2978 2979 2979 2980 2980 2980 2981 2982 2982 2983 2983 2984 2984 2985
2967 2966 2964 2964 2963 2962 2961 2960 2959 2959 2958 2957 2956 2955 2955 2954 2954 2955 2955 2955 2955 2955 2955 2955 2955 2955 2955 2955 2955 2955 2955 2956 2957 2958 2959 2960 2961 2962 2963 2964 2965 2966 2967 2968 2968 2969 2970 2972 2973 2974 2974 2974 2974 2975 2976 2977 2978 2978 2978 2979 2979 2980 2980 2981 2982 2982 2983 2983 2984
2968 2967 2965 2964 2963 2962 2962 2961 2960 2960 2959 2959 2958 2957 2957 2956 2956 2955 2955 2955 2955 2955 2956 2956 2956 2957 2957 2957 2956 2956 2957 2957 2957 2958 2959 2959 2960 2961 2962 2963 2963 2964 2965 2966 2967 2968 2969 2971 2972 2972 2972 2972 2973 2974 2975 2976 2976 2976 2976 2977 2977 2978 2978 2979 2980 2980 2981 2982 2982
2969 2968 2966 2965 2964 2963 2962 2962 2961 2960 2960 2960 2959 2959 2958 2958 2957 2957 2956 2956 2956 2956 2956 2956 2956 2957 2957 2958 2958 2958 2958 2958 2958 2959 2959 2959 2960 2960 2961 2962 2963 2963 2964 2964 2965 2966 2968 2969 2970 2971 2971 2972 2972 2973 2974 2974 2974 2974 2974 2974 2975 2975 2976 2976 2977 2978 2979 2979 2980
2970 2969 2967 2966 2965 2964 2963 2962 2962 2961 2961 2960 2960 2960 2959 2959 2959 2958 2958 2957 2957 2956 2956 2956 2956 2956 2957 2957 2958 2958 2958 2959 2959 2959 2959 2959 2960 2960 2961 2961 2962 2962 2963 2964 2964 2965 2966 2967 2968 2969 2970 2970 2971 2971 2972 2972 2972 2972 2973 2973 2974 2974 2974 2975 2975 2976 2976 2976 2977
2971 2970 2969 2967 2966 2965 2964 2963 2963 2962 2961 2961 2960 2960 2960 2959 2959 2959 2959 2959 2958 2958 2957 2957 2956 2956 2956 2957 2957 2957 2958 2958 2958 2959 2959 2959 2960 2960 2960 2961 2961 2962 2962 2963 2963 2964 2964 2965 2966 2967 2968 2969 2969 2969 2970 2970 2970 2971 2971 2972 2972 2972 2973 2973 2974 2974 2973 2974 2974
2972 2971 2970 2969 2968 2966 2965 2964 2964 2963 2962 2962 2961 2960 2960 2960 2959 2959 2959 2959 2959 2958 2958 2958 2957 2957 2957 2957 2957 2957 2957 2957 2958 2958 2958 2959 2959 2960 2960 2960 2961 2961 2961 2962 2962 2963 2963 2964 2965 2966 2967 2968 2968 2969 2969 2969 2969 2969 2970 2970 2970 2971 2971 2971 2971 2971 2971 2971 2971
2974 2972 2971 2970 2969 2968 2967 2966 2965 2964 2963 2962 2962 2961 2960 2960 2959 2959 2959 2959 2959 2959 2959 2958 2958 2958 2958 2957 2957 2957 2957 2957 2957 2957 2957 2958 2958 2959 2959 2959 2960 2960 2961 2961 2961 2962 2962 2963 2964 2965 2965 2966 2967 2967 2968 2968 2968 2969 2969 2969 2969 2969 2969 2969 2969 2969 2969 2969 2970
2974 2973 2972 2971 2970 2969 2968 2967 2966 2965 2964 2963 2962 2962 2961 2960 2960 2959 2959 2959 2959 2959 2959 2958 2958 2958 2958 2958 2958 2957 2957 2957 2956 2957 2957 2957 2957 2958 2958 2958 2959 2959 2959 2960 2960 2961 2961 2962 2962 2963 2963 2964 2964 2965 2966 2966 2966 2967 2967 2967 2967 2968 2968 2968 2968 2968 2969 2969 2969
2975 2974 2973 2972 2971 2970 2969 2968 2967 2966 2965 2964 2963 2962 2962 2961 2960 2960 2959 2959 2959 2958 2958 2958 2958 2958 2958 2958 2958 2958 2958 2957 2957 2957 2957 2957 2957 2957 2957 2957 2958 2958 2958 2959 2959 2960 2960 2960 2961 2961 2961 2962 2962 2963 2963 2964 2964 2964 2964 2965 2965 2965 2965 2966 2966 2967 2967 2968 2969
2975 2974 2974 2973 2972 2971 2970 2969 2968 2967 2966 2965 2964 2963 2962 2961 2961 2960 2959 2959 2959 2958 2958 2958 2958 2958 2957 2957 2957 2957 2957 2957 2958 2957 2957 2957 2957 2957 2957 2957 2957 2957 2957 2958 2958 2959 2959 2959 2959 2959 2960 2960 2961 2961 2961 2962 2962 2962 2963 2963 2963 2963 2964 2964 2964 2965 2966 2966 2967
2976 2975 2974 2973 2972 2971 2970 2969 2969 2968 2967 2966 2965 2964 2963 2962 2961 2960 2960 2959 2959 2958 2958 2958 2957 2957 2957 2957 2957 2957 2957 2957 2957 2957 2957 2957 2957 2957 2957 2957 2957 2956 2956 2957 2957 2958 2958 2958 2959 2959 2959 2959 2959 2959 2960 2960 2960 2960 2961 2961 2961 2961 2962 2962 2963 2963 2964 2964 2965
2976 2975 2974 2973 2972 2972 2971 2970 2969 2968 2967 2966 2965 2964 2963 2962 2961 2961 2960 2959 2959 2959 2958 2958 2957 2957 2957 2957 2956 2956 2956 2956 2956 2956 2956 2956 2956 2956 2956 2957 2957 2956 2956 2956 2956 2956 2957 2957 2957 2957 2957 2957 2958 2958 2958 2958 2959 2959 2959 2959 2959 2960 2960 2960 2961 2961 2961 2962 2962
2976 2975 2974 2974 2973 2972 2971 2970 2969 2968 2967 2966 2965 2964 2963 2963 2962 2961 2960 2960 2959 2959 2958 2958 2958 2957 2957 2956 2956 2956 2956 2956 2956 2956 2956 2955 2955 2955 2956 2956 2956 2956 2956 2956 2956 2956 2955 2955 2955 2955 2955 2955 2956 2956 2956 2957 2957 2957 2957 2957 2958 2958 2959 2959 2959 2959 2959 2959 2960
2977 2976 2975 2974 2973 2972 2971 2970 2969 2968 2967 2966 2965 2964 2963 2963 2962 2961 2960 2960 2959 2959 2958 2958 2957 2957 2957 2956 2956 2955 2955 2955 2955 2955 2955 2955 2955 2955 2955 2955 2955 2955 2955 2955 2955 2955 2954 2954 2954 2954 2953 2953 2954 2954 2954 2954 2955 2955 2956 2956 2956 2956 2957 2957 2957 2957 2958 2958 2958
2977 2976 2975 2974 2973 2972 2971 2970 2969 2968 2967 2966 2965 2964 2963 2962 2962 2961 2960 2960 2959 2959 2958 2958 2957 2957 2956 2956 2955 2955 2955 2954 2954 2954 2954 2954 2954 2955 2955 2955 2954 2954 2954 2954 2954 2954 2953 2953 2952 2952 2952 2952 2952 2952 2952 2952 2953 2953 2954 2954 2954 2954 2954 2955 2955 2955 2956 2956 2956
2977 2976 2975 2974 2973 2972 2971 2970 2969 2968 2967 2966 2965 2964 2963 2962 2961 2961 2960 2959 2959 2958 2958 2957 2957 2956 2956 2955 2955 2954 2954 2954 2954 2953 2953 2953 2953 2953 2954 2954 2954 2954 2954 2953 2952 2952 2952 2952 2952 2951 2951 2951 2951 2951 2951 2951 2951 2951 2951 2952 2952 2952 2953 2953 2953 2954 2954 2954 2955
2977 2976 2975 2974 2973 2972 2971 2970 2969 2968 2967 2966 2965 2964 2963 2962 2961 2960 2960 2959 2959 2958 2957 2957 2956 2956 2955 2955 2954 2954 2954 2953 2953 2952 2952 2952 2952 2952 2952 2952 2952 2952 2952 2952 2952 2952 2951 2951 2951 2951 2951 2950 2950 2950 2950 2950 2950 2950 2950 2950 2951 2951 2952 2952 2953 2953 2953 2954 2954
2977 2976 2975 2974 2973 2972 2971 2970 2969 2968 2967 2966 2965 2964 2963 2962 2961 2960 2959 2959 2958 2958 2957 2956 2956 2955 2955 2954 2954 2953 2953 2952 2952 2951 2951 2951 2950 2950 2950 2950 2950 2950 2950 2950 2951 2951 2950 2950 2950 2950 2950 2950 2950 2949 2949 2949 2949 2949 2949 2950 2950 2950 2951 2951 2951 2952 2952 2953 2953
2976 2975 2974 2974 2973 2972 2970 2969 2969 2967 2966 2965 2964 2964 2963 2962 2961 2960 2959 2959 2958 2957 2956 2956 2955 2954 2954 2953 2953 2952 2952 2951 2951 2950 2950 2949 2949 2949 2949 2949 2948 2949 2949 2949 2949 2949 2949 2949 2949 2949 2949 2949 2949 2949 2949 2949 2949 2949 2949 2949 2949 2949 2950 2950 2950 2951 2951 2952 2952
2976 2975 2974 2973 2972 2971 2970 2969 2968 2967 2966 2965 2964 2963 2962 2961 2960 2959 2959 2958 2957 2957 2956 2955 2954 2954 2953 2952 2952 2951 2951 2950 2950 2949 2949 2948 2948 2948 2947 2947 2947 2947 2947 2947 2947 2947 2947 2947 2947 2948 2948 2948 2948 2948 2948 2948 2948 2948 2949 2949 2949 2949 2949 2949 2949 2949 2950 2950 2951
2975 2974 2973 2972 2971 2970 2969 2968 2967 2966 2965 2964 2964 2963 2962 2961 2960 2959 2958 2957 2957 2956 2955 2955 2954 2953 2953 2952 2951 2950 2949 2949 2949 2948 2947 2947 2946 2946 2946 2946 2945 2945 2945 2945 2945 2945 2945 2945 2945 2945 2945 2946 2946 2946 2947 2946 2946 2946 2947 2948 2949 2948 2948 2948 2948 2948 2949 2949 2950
2974 2973 2972 2971 2970 2969 2968 2967 2966 2966 2965 2964 2963 2962 2961 2960 2959 2958 2957 2957 2956 2955 2954 2954 2954 2953 2952 2951 2950 2949 2949 2948 2947 2947 2946 2945 2945 2945 2944 2944 2944 2944 2944 2944 2944 2944 2944 2943 2943 2943 2943 2943 2944 2944 2945 2945 2945 2944 2945 2946 2947 2946 2946 2946 2946 2947 2947 2948 2948
2973 2972 2971 2970 2969 2968 2967 2966 2965 2964 2964 2963 2962 2961 2960 2959 2958 2957 2956 2956 2955 2954 2954 2953 2953 2952 2951 2950 2949 2949 2948 2947 2946 2945 2944 2944 2944 2943 2943 2942 2942 2942 2942 2942 2942 2942 2942 2942 2941 2941 2941 2941 2941 2942 2942 2943 2944 2943 2944 2944 2944 2944 2944 2944 2944 2945 2945 2946 2946
2973 2971 2970 2969 2969 2968 2967 2966 2964 2964 2963 2962 2961 2960 2959 2958 2957 2956 2955 2955 2954 2953 2953 2952 2951 2951 2950 2949 2949 2948 2947 2946 2945 2944 2943 2943 2942 2942 2941 2941 2940 2940 2940 2940 2940 2940 2939 2939 2940 2940 2940 2940 2940 2940 2940 2941 2942 2942 2943 2943 2943 2942 2942 2942 2943 2943 2944 2944 2944